Simultaneous Nadir Overpasses (SNOs) Predictions

Prediction of SNOs between NOAA-19 and NPP Satellite Orbit:

Table of predicted SNOs for the next 14.0 days since TLE Epoch: 1/30/2015
Index Date (NOAA-19) Time (NOAA-19) Lat,Lon (NOAA-19) SZA (NOAA-19 ) Date (NPP) Time (NPP) Lat,Lon (NPP) SZA (NPP ) Distance(km) Time Diff (sec)
1 02/03/2015 07:39:17 80.96, 15.12 101.06 02/03/2015 07:40:18 80.97, 14.94 101.05 3.26 61
2 02/03/2015 08:30:13 -80.96,-177.60 78.96 02/03/2015 08:31:02 -80.96,-177.53 79.00 1.33 49
3 02/03/2015 09:21:19 80.95, -10.02 100.98 02/03/2015 09:21:47 80.95, -10.17 100.99 2.62 28
4 02/03/2015 10:12:14 -80.95, 157.26 79.03 02/03/2015 10:12:30 -80.94, 157.36 79.06 2.03 16
5 02/03/2015 11:03:20 80.94, -35.16 100.91 02/03/2015 11:03:15 80.94, -35.28 100.93 2.02 5
6 02/03/2015 11:54:17 -80.95, 131.74 79.05 02/03/2015 11:54:00 -80.95, 131.89 79.07 2.66 17
7 02/03/2015 12:45:23 80.94, -60.68 100.89 02/03/2015 12:44:45 80.95, -60.75 100.92 1.36 38
8 02/03/2015 13:36:18 -80.93, 106.97 79.18 02/03/2015 13:35:29 -80.93, 106.78 79.13 3.24 49




NCC Satellite Simultaneous Nadir Overpasses (SNOs) Prediction Service
